| time (UTC) | temp F | wind direction | speed MPH | gust MPH | rain 1hr in | rain 24hr in | rain mn in | humidity % | barometer mb |
| 20260502181553 | 68 | 205 | 0.0 | 4.0 | 0.00 | 0.46 | 0.46 | 98 | 1007.9 |
| 20260502180105 | 68 | 297 | 2.0 | 9.0 | 0.07 | 0.46 | 0.46 | 98 | 1008.4 |
| 20260502170103 | 68 | 275 | 5.0 | 14.0 | 0.12 | 0.39 | 0.39 | 97 | 1009.1 |
| 20260502163058 | 71 | 44 | 1.0 | 3.0 | 0.03 | 0.29 | 0.29 | 98 | 1008.4 |
| 20260502161600 | 70 | 205 | 1.0 | 4.0 | 0.01 | 0.27 | 0.27 | 98 | 1008.7 |
| 20260502151558 | 67 | 0 | 0.0 | 4.0 | 0.26 | 0.26 | 0.26 | 96 | 1009.4 |
| 20260502140104 | 69 | 281 | 0.0 | 1.0 | 0.00 | 0.00 | 0.00 | 92 | 1009.5 |
| 20260502123053 | 68 | 0 | 0.0 | 2.0 | 0.00 | 0.00 | 0.00 | 92 | 1009.2 |
| 20260502121555 | 68 | 0 | 0.0 | 2.0 | 0.00 | 0.00 | 0.00 | 92 | 1009.2 |
| 20260502114551 | 68 | 265 | 1.0 | 4.0 | 0.00 | 0.00 | 0.00 | 93 | 1009.1 |
| 20260502113052 | 68 | 0 | 0.0 | 2.0 | 0.00 | 0.00 | 0.00 | 93 | 1009.0 |
| 20260502111613 | 67 | 0 | 0.0 | 2.0 | 0.00 | 0.00 | 0.00 | 93 | 1008.8 |
| 20260502110053 | 67 | 0 | 0.0 | 3.0 | 0.00 | 0.00 | 0.00 | 93 | 1008.6 |
| 20260502104553 | 67 | 289 | 0.0 | 2.0 | 0.00 | 0.00 | 0.00 | 93 | 1008.3 |
| 20260502103102 | 67 | 258 | 1.0 | 3.0 | 0.00 | 0.00 | 0.00 | 93 | 1008.0 |
| 20260502101601 | 67 | 289 | 0.0 | 2.0 | 0.00 | 0.00 | 0.00 | 93 | 1007.4 |
| 20260502070051 | 68 | 0 | 0.0 | 1.0 | 0.00 | 0.00 | 0.00 | 93 | 1009.5 |
| 20260502064601 | 68 | 0 | 0.0 | 1.0 | 0.00 | 0.00 | 0.00 | 93 | 1009.3 |
| 20260502063100 | 68 | 0 | 0.0 | 1.0 | 0.00 | 0.00 | 0.00 | 92 | 1009.7 |
| 20260502061555 | 68 | 0 | 0.0 | 0.0 | 0.00 | 0.00 | 0.00 | 92 | 1010.0 |
| 20260502060051 | 68 | 0 | 0.0 | 0.0 | 0.00 | 0.00 | 0.00 | 90 | 1010.0 |
| 20260502054601 | 69 | 0 | 0.0 | 0.0 | 0.00 | 0.00 | 0.00 | 89 | 1010.1 |
| 20260502053056 | 69 | 0 | 0.0 | 0.0 | 0.00 | 0.00 | 0.00 | 89 | 1010.1 |
| 20260502051553 | 69 | 0 | 0.0 | 0.0 | 0.00 | 0.00 | 0.00 | 89 | 1010.1 |
| 20260502050054 | 70 | 0 | 0.0 | 1.0 | 0.00 | 0.00 | 0.00 | 88 | 1010.3 |
| 20260502044551 | 70 | 0 | 0.0 | 0.0 | 0.00 | 0.00 | 0.00 | 88 | 1010.5 |
| 20260502043106 | 70 | 0 | 0.0 | 2.0 | 0.00 | 0.00 | 0.00 | 88 | 1010.4 |
| 20260502041553 | 70 | 0 | 0.0 | 0.0 | 0.00 | 0.00 | 0.00 | 87 | 1010.6 |
| 20260502040054 | 70 | 0 | 0.0 | 1.0 | 0.00 | 0.00 | 0.00 | 86 | 1010.7 |
| 20260502034553 | 70 | 0 | 0.0 | 1.0 | 0.00 | 0.00 | 0.00 | 85 | 1010.4 |
| 20260502033056 | 70 | 0 | 0.0 | 1.0 | 0.00 | 0.00 | 0.00 | 85 | 1010.7 |
| 20260502031555 | 70 | 0 | 0.0 | 3.0 | 0.00 | 0.00 | 0.00 | 85 | 1010.2 |
| 20260502030056 | 71 | 0 | 1.0 | 4.0 | 0.00 | 0.00 | 0.00 | 85 | 1009.9 |
| 20260502024553 | 71 | 115 | 0.0 | 2.0 | 0.00 | 0.00 | 0.00 | 84 | 1010.8 |
| 20260502023055 | 71 | 83 | 1.0 | 3.0 | 0.00 | 0.00 | 0.00 | 83 | 1010.9 |
| 20260502021553 | 71 | 338 | 0.0 | 2.0 | 0.00 | 0.00 | 0.00 | 82 | 1011.3 |
| 20260502020051 | 71 | 0 | 0.0 | 3.0 | 0.00 | 0.00 | 0.00 | 82 | 1011.3 |
| 20260502014552 | 71 | 82 | 1.0 | 4.0 | 0.00 | 0.00 | 0.00 | 82 | 1009.9 |
| 20260502013051 | 71 | 0 | 1.0 | 7.0 | 0.00 | 0.00 | 0.00 | 82 | 1010.7 |
| 20260502011552 | 71 | 0 | 1.0 | 6.0 | 0.00 | 0.00 | 0.00 | 83 | 1010.3 |
| 20260502010054 | 71 | 185 | 0.0 | 4.0 | 0.00 | 0.00 | 0.00 | 86 | 1010.7 |
| 20260502004607 | 72 | 69 | 1.0 | 6.0 | 0.00 | 0.16 | 0.00 | 88 | 1010.5 |
| 20260502003055 | 73 | 117 | 1.0 | 9.0 | 0.00 | 0.16 | 0.00 | 88 | 1010.3 |
| 20260502001555 | 73 | 26 | 1.0 | 6.0 | 0.00 | 0.16 | 0.00 | 87 | 1010.0 |
| 20260502000106 | 74 | 44 | 0.0 | 5.0 | 0.00 | 0.16 | 0.00 | 86 | 1009.5 |
| 20260501234555 | 75 | 59 | 0.0 | 8.0 | 0.00 | 0.27 | 0.00 | 86 | 1009.4 |
| 20260501233052 | 75 | 67 | 1.0 | 4.0 | 0.00 | 0.27 | 0.00 | 85 | 1009.2 |
| 20260501231554 | 75 | 0 | 1.0 | 4.0 | 0.00 | 0.27 | 0.00 | 83 | 1009.3 |
| 20260501230056 | 76 | 105 | 0.0 | 7.0 | 0.00 | 0.27 | 0.00 | 84 | 1008.8 |
| 20260501224556 | 76 | 94 | 2.0 | 8.0 | 0.00 | 0.27 | 0.00 | 84 | 1008.8 |
| 20260501223104 | 76 | 97 | 2.0 | 7.0 | 0.00 | 0.27 | 0.00 | 84 | 1009.0 |
| 20260501221554 | 78 | 74 | 2.0 | 6.0 | 0.00 | 0.27 | 0.00 | 79 | 1008.7 |
| 20260501220105 | 78 | 92 | 1.0 | 9.0 | 0.00 | 0.27 | 0.00 | 76 | 1008.6 |
| 20260501214554 | 79 | 67 | 3.0 | 8.0 | 0.00 | 0.27 | 0.00 | 75 | 1008.7 |
| 20260501213109 | 80 | 76 | 2.0 | 7.0 | 0.00 | 0.27 | 0.00 | 73 | 1008.5 |
| 20260501211556 | 84 | 118 | 4.0 | 8.0 | 0.00 | 0.27 | 0.00 | 65 | 1008.1 |
| 20260501210057 | 87 | 280 | 2.0 | 8.0 | 0.00 | 0.27 | 0.00 | 55 | 1008.1 |
| 20260501204553 | 87 | 319 | 2.0 | 7.0 | 0.00 | 0.27 | 0.00 | 56 | 1008.1 |
| 20260501203059 | 87 | 291 | 3.0 | 7.0 | 0.00 | 0.27 | 0.00 | 54 | 1008.2 |
| 20260501201554 | 87 | 270 | 4.0 | 13.0 | 0.00 | 0.27 | 0.00 | 55 | 1008.5 |
| 20260501200056 | 86 | 28 | 2.0 | 12.0 | 0.00 | 0.27 | 0.00 | 57 | 1008.9 |
| 20260501194556 | 86 | 302 | 1.0 | 11.0 | 0.00 | 0.33 | 0.00 | 58 | 1009.1 |
| 20260501193056 | 86 | 278 | 5.0 | 11.0 | 0.00 | 0.33 | 0.00 | 59 | 1009.4 |
| 20260501191553 | 85 | 257 | 2.0 | 7.0 | 0.00 | 0.33 | 0.00 | 59 | 1009.4 |
| 20260501190054 | 84 | 302 | 3.0 | 9.0 | 0.00 | 0.33 | 0.00 | 62 | 1009.6 |
| 20260501184551 | 83 | 311 | 3.0 | 9.0 | 0.00 | 0.37 | 0.00 | 63 | 1009.9 |
| 20260501183058 | 83 | 288 | 1.0 | 7.0 | 0.00 | 0.37 | 0.00 | 63 | 1010.0 |